Location: Handeloh
(53.2500°N, 9.8330°E)
Time: 17:22:58
(UTC+01:00)

S-56A Canister/Altair - Pass Details

Date: 17 November 2019
Orbit: 633 x 2499 km, 38.9° (Epoch: 11 December)

Event Time Altitude Azimuth Distance (km) Brightness Sun altitude
Rises 17:30:12 0° 215° (SW) 4,954 12.6 -10.0°
Reaches altitude 10° 17:35:15 10° 198° (SSW) 3,558 11.4 -10.7°
Maximum altitude 17:40:13 17° 163° (SSE) 2,661 10.3 -11.5°
Drops below altitude 10° 17:44:17 10° 126° (SE) 2,794 10.0 -12.0°
Enters shadow 17:45:37 - 116° (ESE) 3,027 10.1 -12.2°
Sets 17:47:32 0° 105° (ESE) 3,479 - -12.5°
